Rochester/St. Mary\'s Hospita, MN

5:31 AM CDT on June 22, 2018 (GMT -0500)
Rochester/St. Mary\'s Hospita

Weather History for K9MN - October, 2017

Change the Weather History Date:

Thursday, October 19, 2017

  Actual Average (WUND) Record (WUND)
Temperature  
Mean Temperature 56 °F -  
Max Temperature 72 °F - - (-1)
Min Temperature 41 °F - - (-1)
Degree Days  
Heating Degree Days 9    
Growing Degree Days 6 (Base 50)    
Moisture  
Dew Point 33 °F    
Average Humidity 42    
Maximum Humidity 70    
Minimum Humidity 23    
Precipitation  
Precipitation 0.00 in - - ()
Sea Level Pressure  
Sea Level Pressure 30.06 in    
Wind  
Wind Speed 6 mph (SSE)    
Max Wind Speed 15 mph    
Max Gust Speed 22 mph    
Visibility 10 miles    
Events      
Averages and records for this station are not official NWS values.
T = Trace of Precipitation, MM = Missing Value Source: NWS Daily Summary

Daily Weather History Graph

Daily Weather History Graph

Search for Another Location

Airport or City:

Astronomy

Oct. 19, 2017 Rise Set
Actual Time 7:29 AM CDT 6:18 PM CDT
Civil Twilight 7:00 AM CDT 6:48 PM CDT
Nautical Twilight 6:27 AM CDT 7:21 PM CDT
Astronomical Twilight 5:53 AM CDT 7:55 PM CDT
Moon 7:07 AM CDT (10/19) 6:43 PM CDT (10/19)
Length of Visible Light 11h 47m
Length of Day
10h 49m
Waning Crescent, 0% of the Moon is Illuminated
Oct 19
Waning Crescent
Oct 19
New
Oct 27
First Quarter
Nov 4
Full
Nov 10
Last Quarter

Hourly Weather History & Observations

Time (CDT) Temp. Windchill Dew Point Humidity Pressure Visibility Wind Dir Wind Speed Gust Speed Precip Events Conditions
12:12 AM 51.8 °F - 26.8 °F 38% 30.04 in 10.0 mi WNW 9.2 mph - N/A   Clear
12:32 AM 51.8 °F - 26.8 °F 38% 30.04 in 10.0 mi WNW 10.4 mph - N/A   Clear
12:52 AM 51.4 °F - 27.0 °F 39% 30.04 in 10.0 mi West 5.8 mph - N/A   Clear
1:12 AM 51.1 °F - 26.8 °F 39% 30.05 in 10.0 mi West 5.8 mph - N/A   Clear
1:32 AM 50.9 °F - 27.0 °F 40% 30.05 in 10.0 mi West 3.5 mph - N/A   Clear
1:52 AM 50.0 °F - 27.1 °F 41% 30.05 in 10.0 mi West 4.6 mph - N/A   Clear
2:12 AM 50.0 °F - 27.5 °F 42% 30.05 in 10.0 mi Calm Calm - N/A   Clear
2:32 AM 49.5 °F - 28.2 °F 44% 30.06 in 10.0 mi Calm Calm - N/A   Clear
2:52 AM 49.3 °F - 28.8 °F 45% 30.06 in 10.0 mi WSW 4.6 mph - N/A   Clear
3:12 AM 48.9 °F - 28.6 °F 45% 30.06 in 10.0 mi Calm Calm - N/A   Clear
3:32 AM 48.7 °F - 29.3 °F 47% 30.06 in 10.0 mi Calm Calm - N/A   Clear
3:52 AM 48.2 °F - 29.5 °F 48% 30.06 in 10.0 mi Calm Calm - N/A   Clear
4:12 AM 48.6 °F - 28.8 °F 46% 30.06 in 10.0 mi WSW 3.5 mph - N/A   Clear
4:32 AM 47.8 °F - 29.8 °F 50% 30.06 in 10.0 mi Calm Calm - N/A   Clear
4:52 AM 46.8 °F - 29.7 °F 51% 30.07 in 10.0 mi Calm Calm - N/A   Clear
5:12 AM 46.4 °F - 28.9 °F 51% 30.07 in 10.0 mi Calm Calm - N/A   Clear
5:31 AM 46.4 °F - 28.9 °F 51% 30.07 in 10.0 mi Calm Calm - N/A   Clear
5:52 AM 46.0 °F 44.8 °F 30.4 °F 54% 30.08 in 10.0 mi South 3.5 mph - N/A   Clear
6:12 AM 44.8 °F - 29.8 °F 56% 30.08 in 10.0 mi Calm Calm - N/A   Clear
6:31 AM 43.9 °F - 31.1 °F 61% 30.08 in 10.0 mi Calm Calm - N/A   Clear
6:52 AM 43.0 °F - 32.5 °F 67% 30.08 in 10.0 mi Calm Calm - N/A   Clear
7:12 AM 41.9 °F - 32.9 °F 70% 30.10 in 10.0 mi Calm Calm - N/A   Clear
7:31 AM 43.0 °F 40.3 °F 31.8 °F 65% 30.09 in 10.0 mi SE 4.6 mph - N/A   Clear
7:52 AM 42.6 °F - 32.0 °F 66% 30.10 in 10.0 mi Calm Calm - N/A   Clear
8:12 AM 42.1 °F 38.4 °F 32.2 °F 68% 30.10 in 10.0 mi SE 5.8 mph - N/A   Clear
8:31 AM 42.3 °F 40.5 °F 32.5 °F 68% 30.11 in 10.0 mi SE 3.5 mph - N/A   Clear
8:52 AM 44.2 °F - 32.7 °F 64% 30.11 in 10.0 mi Calm Calm - N/A   Clear
9:12 AM 47.7 °F - 33.3 °F 57% 30.12 in 10.0 mi Calm Calm - N/A   Clear
9:31 AM 50.2 °F - 33.8 °F 53% 30.12 in 10.0 mi Calm Calm - N/A   Clear
9:52 AM 52.9 °F - 34.3 °F 49% 30.12 in 10.0 mi SSE 3.5 mph - N/A   Clear
10:12 AM 54.3 °F - 34.0 °F 46% 30.12 in 10.0 mi Calm Calm - N/A   Clear
10:31 AM 57.0 °F - 33.8 °F 42% 30.12 in 10.0 mi SSE 5.8 mph - N/A   Clear
10:52 AM 59.0 °F - 32.2 °F 36% 30.12 in 10.0 mi ESE 4.6 mph - N/A   Clear
11:12 AM 60.1 °F - 32.2 °F 35% 30.12 in 10.0 mi SE 8.1 mph - N/A   Clear
11:31 AM 61.7 °F - 32.0 °F 33% 30.12 in 10.0 mi SSE 5.8 mph - N/A   Clear
11:52 AM 63.5 °F - 29.5 °F 28% 30.11 in 10.0 mi SE 11.5 mph - N/A   Clear
12:12 PM 64.9 °F - 30.0 °F 27% 30.10 in 10.0 mi SE 6.9 mph - N/A   Clear
12:31 PM 66.2 °F - 29.7 °F 25% 30.10 in 10.0 mi SE 9.2 mph - N/A   Clear
12:57 PM 68.2 °F - 30.7 °F 25% 30.09 in 10.0 mi SSE 11.5 mph - N/A   Clear
1:31 PM 68.9 °F - 30.6 °F 24% 30.08 in 10.0 mi South 12.7 mph 18.4 mph N/A   Clear
1:52 PM 69.8 °F - 32.0 °F 25% 30.07 in 10.0 mi SSE 8.1 mph 17.3 mph N/A   Clear
2:12 PM 70.7 °F - 31.8 °F 24% 30.06 in 10.0 mi SSE 13.8 mph - N/A   Clear
2:32 PM 70.3 °F - 31.8 °F 24% 30.05 in 10.0 mi South 15.0 mph 21.9 mph N/A   Clear
2:52 PM 71.1 °F - 32.2 °F 24% 30.05 in 10.0 mi SSE 12.7 mph 17.3 mph N/A   Clear
3:32 PM 71.8 °F - 32.0 °F 23% 30.05 in 10.0 mi South 12.7 mph 20.7 mph N/A   Clear
3:52 PM 71.6 °F - 32.0 °F 23% 30.05 in 10.0 mi South 9.2 mph 18.4 mph N/A   Clear
4:12 PM 71.6 °F - 32.4 °F 24% 30.04 in 10.0 mi South 15.0 mph 20.7 mph N/A   Clear
4:32 PM 71.6 °F - 32.5 °F 24% 30.04 in 10.0 mi SSE 11.5 mph 18.4 mph N/A   Clear
4:52 PM 70.9 °F - 33.4 °F 25% 30.03 in 10.0 mi SSE 12.7 mph 18.4 mph N/A   Clear
5:12 PM 70.2 °F - 34.3 °F 27% 30.02 in 10.0 mi SSE 10.4 mph 20.7 mph N/A   Clear
5:32 PM 69.8 °F - 34.9 °F 28% 30.02 in 10.0 mi SSE 6.9 mph - N/A   Clear
5:52 PM 68.9 °F - 33.8 °F 27% 30.02 in 10.0 mi SSE 12.7 mph 17.3 mph N/A   Clear
6:11 PM 67.3 °F - 33.4 °F 29% 30.01 in 10.0 mi SSE 11.5 mph 17.3 mph N/A   Clear
6:32 PM 65.7 °F - 34.0 °F 31% 30.01 in 10.0 mi SE 8.1 mph - N/A   Clear
6:52 PM 64.4 °F - 34.2 °F 32% 30.01 in 10.0 mi SSE 9.2 mph 16.1 mph N/A   Clear
7:11 PM 63.9 °F - 34.2 °F 33% 30.02 in 10.0 mi SSE 9.2 mph 17.3 mph N/A   Clear
7:32 PM 62.8 °F - 34.0 °F 34% 30.01 in 10.0 mi SSE 9.2 mph - N/A   Clear
7:52 PM 61.9 °F - 34.7 °F 36% 30.01 in 10.0 mi SE 8.1 mph - N/A   Clear
8:11 PM 61.0 °F - 34.7 °F 37% 30.01 in 10.0 mi SE 6.9 mph - N/A   Clear
8:32 PM 60.4 °F - 34.9 °F 38% 30.01 in 10.0 mi SE 9.2 mph - N/A   Clear
8:52 PM 60.3 °F - 34.9 °F 39% 30.00 in 10.0 mi SE 6.9 mph - N/A   Clear
9:11 PM 60.1 °F - 35.1 °F 39% 30.00 in 10.0 mi SE 6.9 mph - N/A   Clear
9:32 PM 60.3 °F - 36.0 °F 40% 30.00 in 10.0 mi SSE 10.4 mph 16.1 mph N/A   Clear
9:52 PM 60.1 °F - 37.6 °F 43% 30.00 in 10.0 mi SSE 13.8 mph 21.9 mph N/A   Clear
10:11 PM 60.3 °F - 39.4 °F 46% 30.00 in 10.0 mi SE 11.5 mph 20.7 mph N/A   Clear
10:32 PM 60.1 °F - 40.5 °F 48% 30.00 in 10.0 mi SSE 11.5 mph 19.6 mph N/A   Clear
10:52 PM 59.5 °F - 41.7 °F 52% 30.00 in 10.0 mi SSE 9.2 mph 16.1 mph N/A   Clear
11:11 PM 59.2 °F - 42.8 °F 55% 29.99 in 10.0 mi SSE 9.2 mph - N/A   Clear
11:32 PM 58.5 °F - 43.3 °F 57% 29.99 in 10.0 mi SSE 9.2 mph - N/A   Clear
11:52 PM 58.1 °F - 44.1 °F 60% 29.99 in 10.0 mi SE 10.4 mph - N/A   Clear